Powrót do katalogu

FENGYUN 1C DEB

AktywnyPO
NORAD 30804·DEBRIS·🇨🇳 China

Wystrzelony May 10, 1999 z Taiyuan Satellite Launch Center

Loading…

Następne Przeloty (najbliższe 24 godziny)

TLE

ŚwieżeSource: Space-Track

Epoka: Sep 14, 2026, 04:51 UTC

1 30804U 99025AUN 26257.20259722  .00001082  00000-0  20867-3 0  9998
2 30804  98.8719 344.9542 0183903  74.4730 317.2089 14.55596493 34782

Śledź FENGYUN 1C DEB w czasie rzeczywistym z AllMySat

Download on the App Store